Theta_e
323 322 320 319 319 319 319 318 318 318 318 317 317 316 316 316 317 318 318 318 319 319 319 319 319 319 320 320 322 323 324 325 325 324 323 323 322 321 321 321 322 323
322 322 321 319 319 319 319 319 319 319 319 318 318 318 318 318 318 318 319 319 319 319 320 320 320 320 320 320 320 320 321 322 323 324 324 324 324 324 323 324 324 324
321 321 321 319 318 319 319 319 319 319 319 319 319 319 319 319 319 319 320 320 320 320 320 320 320 321 321 321 321 321 320 320 321 323 324 324 324 324 324 324 324 324
320 321 320 320 319 318 319 319 319 319 320 320 320 320 320 320 320 321 321 321 321 321 321 321 321 321 322 322 322 322 321 320 321 322 322 323 323 322 322 322 323 323
319 320 320 320 319 319 319 319 319 319 320 320 320 321 321 321 322 322 322 322 322 322 321 321 321 322 322 323 323 323 322 322 322 321 321 321 321 321 321 321 322 323
319 319 319 319 319 318 319 319 319 320 320 320 321 321 322 322 323 323 323 323 323 323 322 322 322 322 323 323 324 323 323 323 323 322 321 321 321 321 322 322 323 323
319 318 318 318 318 318 319 319 319 320 320 320 321 322 323 323 323 324 324 324 324 323 323 323 323 323 323 324 324 323 323 322 322 322 322 323 322 322 322 322 322 321
319 318 318 318 318 318 318 318 319 319 319 321 322 322 323 324 324 324 324 325 324 324 323 323 323 323 324 324 323 322 321 321 322 323 323 324 324 324 323 323 322 322
318 318 318 318 317 318 318 318 318 319 320 321 322 322 323 324 324 324 325 325 324 324 324 324 323 324 323 323 322 321 322 322 323 323 323 323 324 324 323 322 322 322
318 317 318 318 318 318 318 318 318 319 320 321 322 323 323 324 324 324 325 325 324 324 323 323 323 323 322 322 321 320 321 321 322 322 323 323 323 322 321 322 322 323
317 317 317 317 317 317 316 316 317 318 319 320 321 322 323 324 324 324 324 324 324 323 323 323 323 321 321 321 320 320 321 322 323 324 324 323 322 322 322 324 323 322
316 316 316 315 315 315 315 315 315 316 317 318 319 321 322 323 324 324 324 323 323 322 322 322 320 320 320 319 317 319 323 324 325 324 324 323 322 322 323 323 322 321
314 314 314 314 314 314 314 314 314 315 316 317 318 320 322 322 323 323 322 322 322 322 322 321 320 320 320 317 316 321 324 324 323 324 323 323 322 322 322 322 322 322
312 312 312 311 312 312 313 313 313 314 314 315 317 318 319 320 320 321 321 321 321 321 320 319 317 317 318 319 321 325 325 324 324 323 322 321 322 322 321 320 320 321
312 311 311 311 310 311 312 312 312 312 312 313 314 314 315 317 318 319 319 319 319 318 317 315 314 316 320 323 326 326 324 323 322 320 320 320 322 322 321 318 318 319
312 311 311 311 310 310 310 311 311 311 311 311 311 311 312 314 315 316 316 315 315 314 314 316 319 321 324 324 323 321 320 320 319 317 319 321 322 323 322 319 319 319
311 311 311 311 311 310 310 310 310 310 310 310 310 310 310 311 312 312 312 311 312 312 313 317 319 320 319 318 317 316 318 321 319 316 318 321 321 321 320 320 321 321
312 311 311 311 311 310 311 310 310 310 310 310 310 309 309 309 310 310 309 309 310 311 312 312 313 313 312 313 318 320 319 320 319 317 319 322 320 318 319 321 322 322
313 311 310 311 311 310 311 311 310 310 310 310 310 309 309 309 309 309 309 309 309 310 310 309 310 311 310 311 317 321 319 317 318 319 321 322 319 317 317 319 321 322
314 312 311 310 310 310 310 310 310 311 310 310 310 310 310 309 309 309 309 309 309 309 309 309 310 310 310 309 312 314 315 314 315 317 319 321 321 319 317 317 320 321
314 313 311 310 310 310 310 310 310 310 310 310 310 310 310 310 310 310 310 309 309 309 309 310 310 309 311 312 312 312 314 315 316 316 316 318 319 319 317 317 318 319
314 313 312 311 311 311 310 310 310 310 310 310 310 310 310 310 310 310 310 310 310 310 310 310 310 311 312 314 316 316 317 318 319 319 318 316 316 316 317 317 317 317
315 313 312 311 312 312 312 311 311 310 310 309 310 310 309 310 310 310 310 310 310 310 310 310 310 310 311 312 314 316 316 316 317 317 316 315 315 315 316 316 316 315
315 313 312 312 312 312 312 312 312 312 311 310 310 310 310 310 310 310 310 310 310 310 310 310 310 310 310 310 310 311 312 313 313 312 312 313 313 314 314 314 315 315
315 313 312 312 312 312 312 312 313 313 312 311 310 310 310 309 310 310 310 310 310 310 310 310 310 310 310 310 310 309 310 311 311 311 311 312 313 313 313 313 314 315
313 313 312 312 312 312 313 314 314 314 312 312 311 310 310 309 309 309 309 310 310 310 310 310 310 310 309 309 309 309 310 310 310 311 311 312 312 312 313 314 314 315
Wind_Speed
43 43 43 42 39 37 36 36 36 35 34 33 33 33 32 31 30 29 28 28 27 26 25 25 24 25 25 26 28 29 31 33 34 35 35 35 35 35 34 33 32 32
44 43 43 42 40 39 38 37 36 34 33 32 32 32 32 31 30 29 29 28 27 27 26 25 24 24 24 25 25 27 28 29 31 31 32 32 32 32 32 31 30 30
42 43 43 42 41 39 38 36 35 34 34 33 32 32 31 30 29 29 29 29 28 28 27 26 25 25 24 24 24 26 27 28 29 29 29 30 29 30 30 29 29 29
39 41 41 41 40 38 37 37 36 35 34 33 32 31 31 30 30 30 30 30 30 29 28 27 26 25 25 25 24 25 27 28 28 27 27 28 28 28 28 28 27 27
36 37 39 39 38 37 37 38 36 35 34 33 32 32 31 31 31 31 30 30 30 29 28 27 26 25 25 24 25 26 27 28 27 27 26 27 27 27 26 25 25 25
34 35 36 37 37 36 37 38 35 35 35 33 32 33 32 32 32 32 32 31 30 29 28 27 26 25 25 25 25 26 26 26 26 25 25 25 26 26 25 25 26 27
33 33 34 34 35 35 37 37 35 35 34 33 34 34 33 33 33 32 32 32 31 29 27 26 25 25 25 25 25 26 26 25 24 22 23 23 24 25 25 25 25 26
31 31 31 32 33 35 36 35 35 35 34 35 35 34 34 34 33 33 33 31 31 29 27 26 26 26 26 26 26 26 25 23 23 23 23 23 23 23 23 22 24 25
30 29 30 31 32 34 34 34 34 34 35 35 35 34 34 34 33 32 32 31 30 28 27 27 26 27 27 27 27 26 25 24 24 24 24 24 23 24 23 22 24 25
30 29 30 31 32 33 34 34 34 34 34 35 34 34 34 33 33 32 31 30 29 28 27 27 28 28 27 26 27 26 25 24 23 23 24 25 26 26 25 23 24 26
27 28 30 31 32 33 33 33 33 33 33 33 33 33 33 33 32 31 30 29 29 28 28 28 29 29 27 27 27 25 23 23 23 24 25 26 26 26 25 24 25 25
26 27 28 29 30 30 30 31 31 32 32 32 32 32 32 31 31 30 30 30 30 30 30 30 29 28 27 28 26 23 22 25 26 26 27 27 25 24 24 25 25 24
26 28 28 29 29 29 29 29 29 30 30 30 31 31 31 31 31 31 31 31 31 31 30 30 28 26 26 25 22 21 23 25 27 27 27 26 25 24 24 24 23 24
25 26 27 27 28 28 29 30 30 29 30 30 30 31 31 31 31 31 32 32 32 31 30 29 27 26 25 23 21 24 27 28 28 29 27 25 25 25 25 25 24 25
23 24 25 26 27 27 28 30 30 31 30 30 31 31 31 31 32 32 32 33 32 31 30 28 26 24 23 23 25 28 30 28 27 28 28 26 26 25 26 26 26 25
23 23 24 25 26 27 28 28 29 30 31 31 32 32 32 32 32 32 33 32 32 31 29 27 26 26 27 30 30 30 30 27 25 27 28 27 26 26 27 27 25 24
23 24 24 25 26 27 28 28 28 29 30 31 32 32 32 32 32 32 32 31 31 30 28 28 30 31 32 31 28 27 28 28 27 27 29 28 27 28 28 26 24 24
24 24 25 25 26 26 26 27 27 28 29 29 30 30 30 30 31 31 31 30 30 30 30 30 31 31 29 27 25 26 27 28 29 29 29 29 29 28 26 24 24 23
25 25 25 25 25 25 24 24 25 26 26 26 26 26 27 28 29 29 29 29 29 29 29 29 28 26 25 25 27 29 29 29 30 30 29 28 29 28 26 24 24 24
26 26 25 23 22 22 22 23 23 23 23 23 23 23 24 25 25 26 26 26 27 27 26 26 25 24 22 23 26 28 28 29 30 30 29 28 28 28 27 26 26 25
28 27 26 24 20 20 20 20 21 21 21 22 22 22 22 22 22 23 23 24 24 23 23 23 23 22 21 21 22 24 26 28 28 28 29 28 27 26 27 27 27 25
30 30 28 25 21 19 19 19 19 20 20 21 21 21 21 22 22 22 23 23 22 22 23 23 22 22 23 23 24 26 28 29 29 28 29 29 28 27 27 27 26 25
33 33 30 27 24 21 19 19 20 20 20 20 21 21 22 23 23 23 23 23 24 24 24 24 24 24 25 26 28 30 31 32 32 32 31 30 29 30 28 26 25 25
35 36 32 28 26 24 22 22 22 22 22 22 22 23 23 24 24 25 25 25 26 26 26 26 26 26 27 27 29 31 32 32 32 30 29 29 29 29 27 24 23 24
38 38 35 31 29 27 26 26 26 26 25 25 26 26 26 26 26 26 27 27 27 28 28 27 27 27 28 29 29 29 29 29 28 27 26 26 25 24 23 22 23 23
41 41 38 34 31 30 29 28 28 28 29 29 29 29 29 28 28 28 28 28 28 28 29 28 28 28 28 28 28 28 28 28 27 26 26 26 24 23 23 24 24 23
Wind_Direction
249 251 251 251 252 254 256 258 259 260 261 261 260 260 261 261 262 262 261 261 262 261 260 260 259 259 258 257 256 255 255 254 255 256 257 258 259 260 261 262 262 264
246 248 249 250 250 251 253 255 258 261 262 262 261 262 262 263 263 263 263 263 263 261 261 260 260 259 258 256 256 254 253 252 251 252 254 255 256 258 260 260 261 261
246 247 248 248 248 249 252 255 257 259 261 261 262 262 263 264 264 264 264 264 264 263 262 262 261 260 259 257 256 254 252 250 248 249 251 252 253 255 256 256 257 257
247 248 248 248 248 249 252 254 256 257 259 260 260 261 263 264 264 264 265 264 264 265 264 264 263 262 260 258 256 254 251 249 247 247 249 250 251 252 252 253 254 254
249 249 249 248 248 249 251 253 254 256 257 258 260 261 262 262 263 264 264 264 265 266 267 267 265 262 259 257 255 253 251 249 247 246 247 249 249 251 252 253 254 256
250 249 248 248 248 249 251 252 254 255 257 258 260 261 261 261 262 262 263 264 265 267 267 266 264 261 257 254 252 251 250 248 246 244 245 248 250 252 254 255 257 258
249 248 247 247 248 250 252 253 254 255 257 258 259 260 260 261 261 262 263 265 266 267 266 264 262 258 254 252 249 248 247 246 246 246 248 251 252 251 250 251 252 252
250 249 248 248 249 251 253 254 254 255 256 257 258 259 260 261 261 262 263 264 265 265 264 262 258 255 252 250 248 246 245 246 247 248 250 253 254 252 250 248 248 247
249 248 247 248 249 250 252 253 253 255 256 258 259 259 260 261 261 262 262 263 263 262 260 258 255 252 251 249 248 245 244 244 245 246 248 250 250 251 252 250 248 247
249 248 247 248 249 250 251 253 254 256 257 258 258 258 259 259 259 260 260 260 259 257 254 252 251 250 249 247 246 244 242 241 240 241 245 247 247 247 248 250 251 252
253 252 251 251 252 253 254 255 256 256 256 257 257 256 257 257 257 257 257 256 254 252 249 247 248 248 245 243 242 240 240 242 242 242 243 246 247 246 248 250 252 255
258 257 256 256 256 257 257 257 256 255 255 254 254 253 253 253 254 253 253 252 250 249 247 246 246 247 246 245 241 235 238 244 245 245 243 243 246 247 246 245 244 245
261 260 260 260 259 259 257 256 254 253 252 251 250 249 248 248 248 248 247 247 247 247 247 247 246 246 246 245 237 232 238 241 240 241 241 239 241 244 243 241 239 239
264 262 262 261 260 259 256 255 253 251 250 248 247 246 245 244 244 245 245 245 246 246 246 247 244 240 240 242 240 240 242 242 239 240 241 238 236 238 239 239 238 238
267 263 261 260 259 257 255 254 252 251 250 248 247 245 244 244 243 243 244 244 245 245 244 245 243 240 241 243 243 243 242 242 241 239 237 236 235 235 236 237 238 237
269 265 261 257 256 255 254 253 252 250 249 248 248 247 245 244 243 243 244 244 245 246 243 240 240 240 240 240 240 239 235 235 238 234 230 232 233 234 235 236 236 236
271 268 264 259 257 255 253 253 252 251 251 250 249 248 246 245 244 244 245 245 245 245 242 238 237 238 239 237 236 234 229 226 228 226 224 228 232 234 233 234 239 241
274 270 267 264 261 259 257 256 255 254 253 252 250 249 247 245 245 244 245 245 245 244 243 240 239 240 238 231 227 229 227 222 222 224 227 231 231 232 232 236 244 244
274 272 269 266 263 262 260 259 258 256 255 254 251 249 246 244 244 244 244 244 244 243 243 242 241 240 237 228 224 227 227 222 222 227 233 233 229 231 235 238 241 239
271 272 271 267 262 261 260 258 258 257 255 254 250 246 244 243 243 242 241 241 241 240 239 238 238 236 233 228 224 223 223 225 227 230 233 233 230 231 235 238 239 239
269 268 268 266 260 258 259 257 257 256 254 252 249 246 245 243 242 242 240 240 239 238 237 235 234 230 227 226 224 222 222 226 230 231 232 234 233 232 235 239 241 243
270 265 262 261 258 257 259 259 259 257 254 252 250 248 247 245 243 243 243 242 242 240 239 238 236 231 225 223 222 222 224 226 229 231 233 235 235 235 237 239 243 245
272 262 255 255 254 255 259 262 262 261 258 255 252 251 249 249 248 247 246 246 246 245 243 242 241 238 234 229 225 225 228 230 232 235 237 237 235 236 238 240 241 242
270 260 251 249 250 253 258 262 264 264 263 259 256 255 254 253 253 253 252 251 250 249 248 246 245 244 242 238 234 232 232 234 237 238 237 236 234 234 235 235 233 235
265 257 249 246 248 252 258 263 265 265 263 260 257 257 256 255 255 256 256 255 254 252 251 248 245 243 242 240 238 236 235 235 236 235 231 230 229 227 226 228 230 235
261 255 249 246 249 253 257 260 262 261 259 258 257 257 257 257 257 257 257 257 256 255 252 248 245 243 240 238 236 234 232 231 231 229 227 226 225 222 223 227 230 232